Skip Navigation Links weather.gov 
NOAA logo-Select to go to the NOAA homepage NDBC Title GraphicClick to go to NDBC home page   Select to go to the NWS homepage
Home About Us Contact Us
 
 
    
    Station List

 Data Access
    Mobile Access
    Interactive Maps
         All Stations
         DART®
    Obs Search
    Ship Obs Report
    BuoyCAMs
    TAO
    DODS
    OceanSITES
    HF Radar
    OSMC
    Dial-A-Buoy
    RSS Feeds Image indicating link to RSS feed access page
    Web Widget
    Web Data Guide
    Maintenance Schedule
    Station Status Report

 Program Info
    TAO
    DART®
    IOOS®

 Publications
    NDBC PEA
    NDBC FONSI
    NDBC DQC Handbook

 Visitor Information
 
USA.gov is the U.S. government's official web portal to all federal, state and local government web resources and services.

Station KCXA2 - King Cove Image indicating link to RSS feed of recent meteorological observations for station KCXA2

Owned and maintained by Marine Exchange of Alaska
C-MAN Station
55.566 N 162.326 W (55°33'58" N 162°19'35" W)

Site elevation: 20 m above mean sea level
Air temp height: 29 m above site elevation
Anemometer height: 29 m above site elevation
Barometer elevation: 29 m above mean sea level

Search And Rescue (SAR) Data

Meteorological Observations from Nearby Stations and Ships Image indicating link to RSS feed of recent meteorological observations near station KCXA2

Large icon indicates selected station.
yellow diamond Stations with recent data
red diamond Stations with no data in last 8 hours
     (24 hours for tsunami stations)


Conditions at KCXA2 as of
(9:25 pm AKST on 01/31/2023)
0625 GMT on 02/01/2023:
     

Click on the graph icon in the table below to see a time series plot of the last five days of that observation.

5-day plot - Wind Direction Wind Direction (WDIR): NW ( 310 deg true )
5-day plot - Wind Speed Wind Speed (WSPD): 11 kts
5-day plot - Wind Gust Wind Gust (GST): 25 kts
5-day plot - Atmospheric Pressure Atmospheric Pressure (PRES): 30.01 in
5-day plot - Air Temperature Air Temperature (ATMP): 36.3 °F
5-day plot - Dew Point Dew Point (DEWP): 27.5 °F
5-day plot - Wind Chill Wind Chill (CHILL): 27.9 °F
5-day plot - Wind Speed at 10 Meters Wind Speed at 10 meters (WSPD10M): 10 kts
5-day plot - Wind Speed at 10 Meters Wind Speed at 20 meters (WSPD20M): 12 kts
5-day plot - Wind Speed, Wind Gust and Atmospheric Pressure Combined plot of Wind Speed, Gust, and Air Pressure
Previous observations
5-day plot - Wind Direction 5-day plot - Wind Speed 5-day plot - Wind Gust 5-day plot - Wave Height 5-day plot - Dominant Wave Period 5-day plot - Average Period 5-day plot - Mean Wave Direction 5-day plot - Atmospheric Pressure 5-day plot - Pressure Tendency 5-day plot - Air Temperature 5-day plot - Water Temperature 5-day plot - Dew Point 5-day plot - Salinity 5-day plot - Visibility 5-day plot - Tide (above MLLW)
MM DD TIME
(AKST)
WDIR WSPD
kts
GST
kts
WVHT
ft
DPD
sec
APD
sec
MWD PRES
in
PTDY
in
ATMP
°F
WTMP
°F
DEWP
°F
SAL
psu
VIS
nmi
TIDE
ft
0131 9:14 pm NW 13 22----30.02- 36.1- 28.0---
0131 9:04 pmWNW 10 19----30.02- 36.0- 28.6---
0131 8:55 pmWNW 13 24----30.02- 36.0- 28.8---
0131 8:44 pmWNW 14 22----30.03- 36.3- 28.4---
0131 8:34 pm NW 15 28----30.02- 36.5- 28.2---
0131 8:25 pm NW 13 21----30.03- 36.3- 28.6---
0131 8:14 pm NW 11 21----30.03- 36.5- 28.8---
0131 8:05 pmWNW 13 22----30.04- 36.3- 28.8---
0131 7:55 pmWNW 13 20----30.03- 36.3- 28.2---
0131 7:44 pm NW 12 18----30.04- 36.3- 28.4---
0131 7:35 pm NW 12 19----30.04- 36.5- 28.4---
0131 7:25 pmWNW 11 20----30.04- 36.3- 28.0---
0131 7:14 pmWNW 12 21----30.04- 36.5- 27.7---
0131 7:05 pmWNW 12 21----30.04- 36.5- 27.5---
0131 6:54 pm NW 14 24----30.04- 36.9- 27.3---
0131 6:44 pm NW 15 24----30.05- 36.9- 27.3---
0131 6:35 pm NW 13 29----30.05- 36.9- 27.3---
0131 6:24 pm NW 12 21----30.05- 37.0- 27.1---
0131 6:14 pmWNW 11 23----30.05- 37.0- 27.3---
0131 6:05 pm NW 15 25----30.04- 37.2- 27.5---
0131 5:54 pm NW 15 27----30.05- 37.4- 28.0---
0131 5:44 pm NW 15 27----30.05- 37.4- 28.6---
0131 5:35 pm NW 16 34----30.05- 37.4- 28.9---
0131 5:24 pm NW 16 28----30.05- 37.6- 29.3---
0131 5:15 pm NW 17 33----30.05- 37.6- 30.4---
0131 5:05 pm NW 17 29----30.05- 37.6- 30.7---
0131 4:55 pm NW 17 29----30.06- 37.8- 30.4---
0131 4:45 pm NW 16 34----30.06- 37.8- 30.4---
0131 4:35 pm NW 14 33----30.06- 37.8- 30.4---
0131 4:24 pm NW 16 31----30.06- 37.8- 30.6---
0131 4:15 pm NW 17 33----30.06- 37.6- 30.2---
0131 4:04 pm NW 14 31----30.07- 37.8- 30.7---
0131 3:54 pm NW 15 34----30.06- 37.8- 30.4---
0131 3:44 pmNNW 17 33----30.07- 37.8- 30.2---
0131 3:34 pm NW 16 37----30.07- 37.9- 29.7---
0131 3:24 pm NW 17 40----30.07- 37.9- 29.1---
0131 3:14 pm NW 16 32----30.07- 37.9- 30.4---
0131 2:54 pm NW 15 38----30.07- 37.9- 30.9---
0131 2:15 pm NW 19 36----30.06- 37.8- 29.8---
0131 2:04 pmNNW 21 40----30.05- 37.9- 28.2---
0131 1:54 pm NW 19 43----30.06- 38.1- 27.1---
0131 1:45 pm NW 16 32----30.06- 38.5- 26.2---
0131 1:35 pm NW 19 40----30.05- 38.1- 27.0---
0131 1:25 pm NW 19 35----30.05- 38.1- 27.0---
0131 1:15 pm NW 22 38----30.05- 37.9- 27.0---
0131 1:04 pm NW 23 40----30.04- 37.8- 27.3---
013112:54 pmWNW 26 45----30.03- 37.9- 25.7---
013112:45 pmWNW 27 46----30.03- 37.9- 25.5---
013112:34 pm NW 27 41----30.02- 37.8- 26.8---
013112:25 pmWNW 26 42----30.02- 37.8- 27.5---
013112:14 pmWNW 28 41----30.01- 37.8- 27.5---
013112:05 pmWNW 29 44----30.02- 37.8- 27.7---
013111:55 am NW 28 41----30.01- 37.9- 27.5---
013111:44 amWNW 28 49----30.01- 37.8- 27.1---
013111:34 amWNW 29 46----30.01- 37.9- 25.7---
013111:24 am NW 30 45----30.00- 37.8- 25.7---
013111:14 am NW 32 48----29.99- 37.8- 26.1---
013111:05 am NW 29 48----29.99- 37.6- 26.4---
013110:55 am NW 28 45----29.99- 37.4- 26.2---
013110:45 am NW 31 45----29.97- 37.6- 25.7---
013110:35 am NW 30 48----29.98- 37.4- 26.2---
013110:25 am NW 30 45----29.98- 37.6- 25.9---
013110:15 am NW 30 48----29.99- 37.8- 24.6---
013110:05 amWNW 31 47----30.00- 37.9- 25.0---
0131 9:55 amWNW 29 48----30.00- 37.8- 26.1---
0131 9:44 amWNW 33 54----30.00- 37.8- 27.5---
0131 9:34 am NW 32 52----29.99- 37.6- 30.2---
0131 9:25 am NW 33 67----29.99- 37.8- 30.0---
0131 9:15 amWNW 29 57----30.00- 37.8- 28.8---
0131 9:04 amWNW 29 48----29.99- 37.8- 28.8---
0131 8:55 amWNW 30 47----29.98- 37.9- 28.8---
0131 8:44 am NW 30 48----29.97- 37.8- 29.5---
0131 8:34 am NW 31 49----29.97- 37.6- 30.0---
0131 8:25 amWNW 33 49----29.97- 37.4- 30.9---
0131 8:14 amWNW 33 51----29.98- 37.2- 31.6---
0131 8:04 am NW 33 54----29.96- 36.3- 32.2---
0131 7:54 am NW 34 56----29.96- 36.1- 32.9---
0131 7:44 am NW 32 59----29.95- 35.8- 33.3---
0131 7:35 am NW 29 54----29.96- 36.1- 33.6---
0131 7:25 am NW 30 50----29.95- 36.3- 33.6---
0131 7:15 am NW 29 44----29.95- 36.1- 33.8---
0131 7:04 am NW 28 48----29.95- 36.1- 33.4---
0131 6:54 amWNW 27 42----29.95- 36.1- 33.1---
0131 6:44 amWNW 29 47----29.95- 36.1- 32.9---
0131 6:34 amWNW 29 47----29.94- 36.3- 32.9---
0131 6:25 am NW 26 42----29.94- 35.4- 32.9---
0131 6:14 amWNW 23 33----29.94- 35.2- 32.5---
0131 6:04 amWNW 25 42----29.94- 35.8- 32.0---
0131 5:54 amWNW 26 38----29.94- 36.0- 31.5---
0131 5:44 amWNW 25 38----29.95- 36.7- 30.7---
0131 5:34 amWNW 26 40----29.94- 37.0- 29.7---
0131 5:24 amWNW 24 39----29.94- 36.7- 29.8---
0131 5:14 amWNW 22 31----29.93- 36.7- 29.3---
0131 5:05 am W 18 26----29.93- 36.1- 30.9---
0131 4:55 am W 15 24----29.93- 36.7- 27.5---
0131 4:45 amNNW 8 15----29.93- 35.2- 27.0---
0131 4:35 am N 9 14----29.93- 35.2- 28.0---
0131 4:25 amNNW 9 14----29.93- 36.7- 25.5---
0131 4:15 amWNW 7 12----29.93- 35.8- 26.2---
0131 4:04 amNNW 5 11----29.93- 33.3- 28.8---
0131 3:54 am N 4 9----29.93- 32.4- 29.3---
0131 3:44 amNNW 6 9----29.93- 32.0- 29.8---
0131 3:35 amNNW 3 8----29.93- 32.2- 30.4---
0131 3:24 am NW 3 5----29.94- 31.5- 30.0---
0131 3:14 am NW 4 6----29.94- 31.1- 29.7---
0131 3:04 amNNW 5 7----29.94- 31.8- 30.0---
0131 2:54 amNNW 5 8----29.94- 31.8- 30.2---
0131 2:44 am NW 4 7----29.94- 32.0- 30.0---
0131 2:34 amNNW 3 6----29.95- 32.0- 30.0---
0131 2:24 am NW 3 4----29.95- 31.8- 30.0---
0131 2:14 am NW 3 5----29.95- 31.6- 29.8---
0131 2:05 amNNW 5 8----29.94- 32.2- 30.0---
0131 1:54 am NW 4 5----29.94- 32.0- 30.0---
0131 1:44 amNNW 4 6----29.94- 32.2- 30.2---
0131 1:35 amWNW 2 4----29.94- 32.7- 30.4---
0131 1:25 am N 3 5----29.94- 33.4- 30.7---
0131 1:14 am NW 2 3----29.94- 33.1- 30.6---
0131 1:04 am NW 3 5----29.95- 33.3- 30.6---
013112:54 amNNW 3 5----29.95- 33.8- 30.9---
013112:44 amNNW 5 7----29.95- 34.2- 31.1---
013112:34 amNNW 2 3----29.96- 34.3- 31.1---
013112:24 am- 0 2----29.96- 34.3- 31.1---
013112:15 am W 1 2----29.96- 34.7- 31.3---
013112:05 am W 2 3----29.96- 34.9- 30.9---
013011:54 pmNNW 3 5----29.96- 35.4- 30.7---
013011:45 pmNNW 2 5----29.96- 36.5- 32.4---
013011:34 pm W 1 3----29.97- 36.9- 32.4---
013011:24 pm N 2 5----29.97- 36.9- 31.8---
013011:15 pm W 5 11----29.97- 37.0- 31.3---
013011:05 pm W 7 11----29.97- 37.9- 31.8---
013010:55 pmWSW 10 17----29.97- 37.9- 31.8---
013010:45 pmWSW 10 21----29.96- 38.1- 29.8---
013010:34 pm W 8 15----29.96- 38.3- 27.7---
013010:25 pmWSW 10 20----29.96- 38.5- 27.3---
013010:15 pmWSW 11 19----29.96- 38.8- 26.4---
013010:04 pmWSW 11 21----29.96- 38.5- 25.0---
0130 9:54 pmESE 2 4----29.96- 37.0- 24.3---
0130 9:44 pm SW 2 5----29.96- 36.7- 25.2---
0130 9:34 pm SE 3 6----29.96- 36.9- 25.2---
0130 9:24 pm S 4 6----29.97- 36.1- 25.0---
0130 9:14 pm S 2 5----29.97- 35.4- 25.3---
0130 9:04 pmNNW 3 6----29.97- 34.9- 26.1---
0130 8:55 pm NW 3 5----29.98- 34.7- 26.4---

Description of Measurements

Links which are specific to this station are listed below:

Real Time Data in tabular form for the last forty-five days.

Historical Data & Climatic Summaries for quality controlled data for the current month, previous months, and previous years.